Find Qianfan Jigui 01-06

NORAD ID: 60384 Int'l Des: 2024-140 Owner: YUANX Country: CN Constellation: qianfan operational
LEOCIRCULARPOLAR

实时位置

正在加载3D地球...

关于 Qianfan Jigui 01-06

正在加载描述...

即将过境

Passes for default location (London). Set your location on the main map for personalized predictions.

高度历史

Loading altitude history...

两行轨道根数

1 60384U 24140F 26104.79457307 .00000064 00000-0 79747-4 0 9995
2 60384 88.9684 286.2741 0012675 192.3161 167.7682 13.51005393 84111
Epoch: Apr 14, 2026 • Age: 7 hours

当前状态

高度 1096.3 km
速度 7.30 km/s
星下点 -71.56°S, 52.53°E
发射日期 Aug 6, 2024
运行时间 1.6 years
类型 internet

技术详情

分类 Payload
质量 267.00 kg
干质量 267.00 kg
总质量 267.00 kg
长度 0.30 m
直径 3.00 m
跨度 10.00 m
形状 Box+pan
制造商 SECM
平台类型 Qianfan
阶段状态 In Orbit
所有者/国家 YUANX/CN

Most Searched